EZY248V EGCC-EGAC

Flight info

Callsign EZY248V
Flight time 0h 35m
Altitude 24000
Route EKLAD Y53 WAL M146 ERDUV Z198 MASOP M148 MAGEE
Aircraft A320/M-SDE3FGHIRWY/LB1

Departure

Time 2026-04-26 11:45
Airport Manchester Airport (EGCC)

Arrival

Time 2026-04-26 12:20
Airport George Best Belfast City Airport (EGAC)
Time Latitude Longitude Altitude Speed Heading
2026-04-26 10:48 53.36836 -2.28883 233 ft 0 kts 134°
2026-04-26 11:30 53.36844 -2.28896 233 ft 4 kts 140°
2026-04-26 11:30 53.36874 -2.28918 234 ft 4 kts 194°
2026-04-26 11:30 53.36889 -2.28906 235 ft 1 kts 225°
2026-04-26 11:31 53.36891 -2.28902 235 ft 0 kts 225°
2026-04-26 11:35 53.36890 -2.28903 235 ft 1 kts 225°
2026-04-26 11:35 53.36872 -2.28934 234 ft 7 kts 225°
2026-04-26 11:35 53.36844 -2.28980 233 ft 11 kts 225°
2026-04-26 11:36 53.36741 -2.29030 233 ft 14 kts 147°
2026-04-26 11:36 53.36693 -2.28951 233 ft 15 kts 134°
2026-04-26 11:36 53.36600 -2.28838 233 ft 13 kts 126°
2026-04-26 11:36 53.36572 -2.28741 235 ft 15 kts 123°
2026-04-26 11:37 53.36476 -2.28570 233 ft 14 kts 134°
2026-04-26 11:37 53.36410 -2.28436 234 ft 16 kts 118°
2026-04-26 11:37 53.36359 -2.28342 233 ft 17 kts 135°
2026-04-26 11:37 53.36254 -2.28162 233 ft 16 kts 135°
2026-04-26 11:38 53.36197 -2.28067 233 ft 18 kts 135°
2026-04-26 11:38 53.36105 -2.27913 233 ft 20 kts 135°
2026-04-26 11:38 53.35999 -2.27772 233 ft 16 kts 137°
2026-04-26 11:38 53.35904 -2.27730 233 ft 10 kts 181°
2026-04-26 11:39 53.35827 -2.27732 233 ft 12 kts 171°
2026-04-26 11:39 53.35754 -2.27654 235 ft 13 kts 159°
2026-04-26 11:39 53.35667 -2.27586 233 ft 15 kts 142°
2026-04-26 11:39 53.35627 -2.27444 233 ft 15 kts 62°
2026-04-26 11:40 53.35690 -2.27308 233 ft 14 kts 51°
2026-04-26 11:40 53.35749 -2.27185 233 ft 13 kts 51°
2026-04-26 11:40 53.35802 -2.27075 233 ft 12 kts 53°
2026-04-26 11:40 53.35848 -2.26946 236 ft 14 kts 54°
2026-04-26 11:41 53.35911 -2.26806 234 ft 16 kts 57°
2026-04-26 11:42 53.36269 -2.26028 233 ft 0 kts 99°
2026-04-26 11:43 53.36269 -2.26020 233 ft 4 kts 99°
2026-04-26 11:43 53.36286 -2.25915 234 ft 14 kts 71°
2026-04-26 11:43 53.36245 -2.25754 233 ft 16 kts 159°
2026-04-26 11:44 53.36181 -2.25828 234 ft 0 kts 231°
2026-04-26 11:44 53.36096 -2.26002 242 ft 54 kts 231°
2026-04-26 11:45 53.35710 -2.26800 244 ft 121 kts 231°
2026-04-26 11:45 53.35070 -2.28120 339 ft 160 kts 230°
2026-04-26 11:45 53.34393 -2.29580 1059 ft 160 kts 231°
2026-04-26 11:45 53.33720 -2.31081 1763 ft 165 kts 231°
2026-04-26 11:46 53.32976 -2.32713 2125 ft 187 kts 230°
2026-04-26 11:46 53.32344 -2.34763 2468 ft 215 kts 259°
2026-04-26 11:46 53.32366 -2.37411 2972 ft 241 kts 272°
2026-04-26 11:46 53.32482 -2.40298 3783 ft 254 kts 270°
2026-04-26 11:47 53.32574 -2.43269 4619 ft 260 kts 272°
2026-04-26 11:47 53.32770 -2.46295 5513 ft 263 kts 277°
2026-04-26 11:47 53.33062 -2.49347 6475 ft 268 kts 278°
2026-04-26 11:47 53.33389 -2.52446 7350 ft 273 kts 278°
2026-04-26 11:48 53.33725 -2.55584 8259 ft 276 kts 278°
2026-04-26 11:48 53.34057 -2.58758 9182 ft 278 kts 278°
2026-04-26 11:48 53.34383 -2.61973 10114 ft 281 kts 278°
2026-04-26 11:48 53.34700 -2.65209 10702 ft 295 kts 277°
2026-04-26 11:49 53.35036 -2.68732 11000 ft 318 kts 277°
2026-04-26 11:49 53.35388 -2.72440 11595 ft 327 kts 277°
2026-04-26 11:49 53.35748 -2.76243 12348 ft 332 kts 277°
2026-04-26 11:49 53.36111 -2.80084 13156 ft 336 kts 277°
2026-04-26 11:50 53.36475 -2.83968 13942 ft 339 kts 277°
2026-04-26 11:50 53.36842 -2.87889 14626 ft 343 kts 277°
2026-04-26 11:50 53.37213 -2.91861 15295 ft 346 kts 277°
2026-04-26 11:50 53.37584 -2.95864 15962 ft 350 kts 277°
2026-04-26 11:51 53.37954 -2.99907 16622 ft 353 kts 277°
2026-04-26 11:51 53.38328 -3.04007 17280 ft 357 kts 277°
2026-04-26 11:51 53.38731 -3.08138 17921 ft 361 kts 281°
2026-04-26 11:51 53.39520 -3.12156 18550 ft 367 kts 293°
2026-04-26 11:52 53.40813 -3.15876 19123 ft 372 kts 304°
2026-04-26 11:52 53.42539 -3.19139 19690 ft 377 kts 313°
2026-04-26 11:52 53.44392 -3.22277 20268 ft 380 kts 312°
2026-04-26 11:52 53.46259 -3.25447 20843 ft 382 kts 312°
2026-04-26 11:53 53.48136 -3.28643 21397 ft 385 kts 312°
2026-04-26 11:53 53.49997 -3.31821 21979 ft 388 kts 312°
2026-04-26 11:53 53.51892 -3.35070 22538 ft 391 kts 311°
2026-04-26 11:54 53.55715 -3.41652 23633 ft 396 kts 311°
2026-04-26 11:54 53.57628 -3.45017 24098 ft 398 kts 308°
2026-04-26 11:54 53.59301 -3.48721 24249 ft 397 kts 303°
2026-04-26 11:54 53.60878 -3.52463 24289 ft 388 kts 303°
2026-04-26 11:55 53.62426 -3.56156 24292 ft 385 kts 302°
2026-04-26 11:55 53.63965 -3.59838 24292 ft 384 kts 302°
2026-04-26 11:55 53.65501 -3.63509 24286 ft 383 kts 302°
2026-04-26 11:55 53.67039 -3.67178 24291 ft 383 kts 302°
2026-04-26 11:56 53.68580 -3.70853 24290 ft 383 kts 302°
2026-04-26 11:56 53.70117 -3.74527 24293 ft 383 kts 302°
2026-04-26 11:56 53.71648 -3.78202 24292 ft 383 kts 302°
2026-04-26 11:56 53.73178 -3.81883 24287 ft 383 kts 302°
2026-04-26 11:57 53.74706 -3.85565 24288 ft 383 kts 302°
2026-04-26 11:57 53.76232 -3.89251 24287 ft 383 kts 302°
2026-04-26 11:57 53.77758 -3.92938 24286 ft 383 kts 302°
2026-04-26 11:57 53.79285 -3.96623 24288 ft 382 kts 302°
2026-04-26 11:58 53.80811 -4.00311 24287 ft 382 kts 302°
2026-04-26 11:58 53.82334 -4.03998 24283 ft 382 kts 302°
2026-04-26 11:58 53.83853 -4.07695 24285 ft 382 kts 302°
2026-04-26 11:58 53.85376 -4.11387 24284 ft 383 kts 303°
2026-04-26 11:59 53.87143 -4.14774 24284 ft 386 kts 315°
2026-04-26 11:59 53.89285 -4.17555 24286 ft 390 kts 326°
2026-04-26 11:59 53.91722 -4.19600 24285 ft 394 kts 336°
2026-04-26 11:59 53.94252 -4.21252 24286 ft 394 kts 336°
2026-04-26 12:00 53.96810 -4.22935 24289 ft 394 kts 336°
2026-04-26 12:00 53.99362 -4.24622 24289 ft 394 kts 336°
2026-04-26 12:00 54.01920 -4.26315 24289 ft 394 kts 336°
2026-04-26 12:00 54.04476 -4.28010 24292 ft 394 kts 335°
2026-04-26 12:01 54.07030 -4.29708 24292 ft 394 kts 335°
2026-04-26 12:01 54.09585 -4.31415 24293 ft 394 kts 335°
2026-04-26 12:01 54.12131 -4.33151 24295 ft 393 kts 332°
2026-04-26 12:01 54.14500 -4.35432 24292 ft 389 kts 321°
2026-04-26 12:02 54.16559 -4.38385 24293 ft 386 kts 311°
2026-04-26 12:02 54.17726 -4.40654 24294 ft 383 kts 304°
2026-04-26 12:02 54.19764 -4.45544 24032 ft 372 kts 302°
2026-04-26 12:02 54.21239 -4.49138 23796 ft 367 kts 302°
2026-04-26 12:03 54.22691 -4.52681 23472 ft 361 kts 302°
2026-04-26 12:03 54.24125 -4.56188 23008 ft 358 kts 302°
2026-04-26 12:03 54.25548 -4.59668 22542 ft 355 kts 302°
2026-04-26 12:03 54.26958 -4.63120 22086 ft 353 kts 302°
2026-04-26 12:04 54.28356 -4.66553 21634 ft 350 kts 302°
2026-04-26 12:04 54.29749 -4.69975 21175 ft 348 kts 302°
2026-04-26 12:04 54.31129 -4.73367 20709 ft 347 kts 302°
2026-04-26 12:04 54.32486 -4.76712 20262 ft 345 kts 302°
2026-04-26 12:05 54.33851 -4.80088 19816 ft 344 kts 302°
2026-04-26 12:05 54.35208 -4.83451 19351 ft 343 kts 302°
2026-04-26 12:05 54.36561 -4.86814 18912 ft 342 kts 302°
2026-04-26 12:05 54.37913 -4.90172 18443 ft 342 kts 302°
2026-04-26 12:06 54.39262 -4.93520 17975 ft 340 kts 302°
2026-04-26 12:06 54.40606 -4.96855 17535 ft 338 kts 302°
2026-04-26 12:06 54.41935 -5.00160 17106 ft 336 kts 302°
2026-04-26 12:06 54.43215 -5.03496 16668 ft 332 kts 295°
2026-04-26 12:07 54.43862 -5.07234 16235 ft 326 kts 272°
2026-04-26 12:07 54.43806 -5.11101 15811 ft 323 kts 265°
2026-04-26 12:07 54.43630 -5.14948 15379 ft 322 kts 264°
2026-04-26 12:07 54.43333 -5.18759 14940 ft 321 kts 259°
2026-04-26 12:08 54.42951 -5.22537 14525 ft 320 kts 259°
2026-04-26 12:08 54.42564 -5.26287 14143 ft 318 kts 259°
2026-04-26 12:08 54.42179 -5.30017 13714 ft 316 kts 259°
2026-04-26 12:08 54.41801 -5.33726 13298 ft 314 kts 259°
2026-04-26 12:09 54.41433 -5.37406 12876 ft 311 kts 259°
2026-04-26 12:09 54.41076 -5.41053 12456 ft 309 kts 259°
2026-04-26 12:09 54.40728 -5.44682 12055 ft 307 kts 259°
2026-04-26 12:09 54.40390 -5.48284 11644 ft 305 kts 259°
2026-04-26 12:10 54.40061 -5.51863 11248 ft 302 kts 259°
2026-04-26 12:10 54.39741 -5.55421 10851 ft 299 kts 259°
2026-04-26 12:10 54.39440 -5.58874 10455 ft 286 kts 259°
2026-04-26 12:10 54.39162 -5.62176 10063 ft 274 kts 259°
2026-04-26 12:11 54.38903 -5.65345 9632 ft 263 kts 259°
2026-04-26 12:11 54.38653 -5.68391 9216 ft 253 kts 259°
2026-04-26 12:11 54.38409 -5.71327 8798 ft 244 kts 259°
2026-04-26 12:11 54.38170 -5.74173 8352 ft 238 kts 259°
2026-04-26 12:12 54.37931 -5.76966 7918 ft 236 kts 259°
2026-04-26 12:12 54.37693 -5.79705 7499 ft 234 kts 259°
2026-04-26 12:12 54.37469 -5.82485 7061 ft 238 kts 265°
2026-04-26 12:12 54.37590 -5.84410 6703 ft 241 kts 284°
2026-04-26 12:13 54.38315 -5.87994 5922 ft 240 kts 287°
2026-04-26 12:13 54.38861 -5.90679 5497 ft 231 kts 287°
2026-04-26 12:13 54.39368 -5.93183 5313 ft 216 kts 287°
2026-04-26 12:13 54.39851 -5.95579 4913 ft 211 kts 288°
2026-04-26 12:14 54.40329 -5.97936 4487 ft 207 kts 288°
2026-04-26 12:14 54.40701 -5.99772 4325 ft 208 kts 288°
2026-04-26 12:14 54.41189 -6.02191 4183 ft 208 kts 288°
2026-04-26 12:14 54.41668 -6.04537 4069 ft 208 kts 291°
2026-04-26 12:15 54.42523 -6.06499 3974 ft 209 kts 323°
2026-04-26 12:15 54.43869 -6.07392 3871 ft 211 kts 355°
2026-04-26 12:15 54.45259 -6.06933 3770 ft 201 kts 27°
2026-04-26 12:15 54.46394 -6.05623 3594 ft 193 kts 34°
2026-04-26 12:16 54.47474 -6.04324 3339 ft 186 kts 34°
2026-04-26 12:16 54.48517 -6.03082 3101 ft 180 kts 33°
2026-04-26 12:16 54.49533 -6.01877 2860 ft 174 kts 34°
2026-04-26 12:16 54.50520 -6.00705 2639 ft 171 kts 33°
2026-04-26 12:17 54.51484 -5.99560 2400 ft 169 kts 34°
2026-04-26 12:17 54.52452 -5.98410 2167 ft 169 kts 35°
2026-04-26 12:17 54.53425 -5.97253 1930 ft 168 kts 35°
2026-04-26 12:17 54.54352 -5.96150 1701 ft 158 kts 36°
2026-04-26 12:18 54.55222 -5.95115 1492 ft 147 kts 36°
2026-04-26 12:18 54.56050 -5.94128 1301 ft 142 kts 36°
2026-04-26 12:18 54.56856 -5.93169 1099 ft 140 kts 35°
2026-04-26 12:18 54.57647 -5.92225 902 ft 137 kts 34°
2026-04-26 12:19 54.58414 -5.91305 685 ft 133 kts 34°
2026-04-26 12:19 54.59166 -5.90406 517 ft 132 kts 33°
2026-04-26 12:19 54.59912 -5.89507 321 ft 130 kts 33°
2026-04-26 12:19 54.60653 -5.88630 156 ft 129 kts 33°
2026-04-26 12:20 54.61386 -5.87755 20 ft 124 kts 33°
2026-04-26 12:20 54.61939 -5.87097 18 ft 56 kts 35°
2026-04-26 12:20 54.62112 -5.86889 16 ft 24 kts 35°
2026-04-26 12:20 54.62245 -5.86729 20 ft 22 kts 34°
2026-04-26 12:21 54.62329 -5.86629 21 ft 22 kts 34°
2026-04-26 12:21 54.62420 -5.86452 21 ft 12 kts 52°
2026-04-26 12:21 54.62463 -5.86483 20 ft 9 kts 217°
2026-04-26 12:21 54.62398 -5.86554 24 ft 18 kts 212°
2026-04-26 12:22 54.62244 -5.86733 20 ft 32 kts 214°
2026-04-26 12:22 54.62045 -5.86973 17 ft 37 kts 215°
2026-04-26 12:22 54.61891 -5.87156 19 ft 17 kts 209°
2026-04-26 12:22 54.61816 -5.87129 18 ft 12 kts 123°
2026-04-26 12:23 54.61778 -5.87038 21 ft 7 kts 123°
2026-04-26 12:23 54.61730 -5.86992 21 ft 10 kts 191°
2026-04-26 12:23 54.61653 -5.87078 21 ft 16 kts 215°
2026-04-26 12:23 54.61592 -5.87152 21 ft 8 kts 215°
2026-04-26 12:24 54.61548 -5.87205 21 ft 7 kts 215°
2026-04-26 12:24 54.61505 -5.87225 21 ft 6 kts 160°
2026-04-26 12:24 54.61472 -5.87196 24 ft 5 kts 156°
2026-04-26 12:25 54.61464 -5.87190 22 ft 0 kts 155°
2026-04-26 12:27 54.61464 -5.87189 22 ft 0 kts 155°